Location: Cahas Mountain Overlook
(37.0833°N, 80.1000°W)
Time: 18:01:54
(UTC-04:00)

CUTE 1.7 + AOD 2 - Visible Passes

Search period start: 31 March 2023 00:00
Search period end: 10 April 2023 00:00
Orbit: 584 x 602 km, 97.7° (Epoch: 31 March)

Date Brightness Start Highest point End Pass type
(mag) Time Alt. Az. Time Alt. Az. Time Alt. Az.
31 Mar ? 04:33:34 10° NNE 04:36:53 40° ENE 04:36:53 40° ENE visible
31 Mar ? 06:10:37 10° NW 06:12:47 14° WNW 06:13:30 13° WNW visible
01 Apr ? 04:42:23 10° NNE 04:46:03 53° ENE 04:46:03 53° ENE visible
01 Apr ? 06:20:26 10° NW 06:21:36 11° WNW 06:22:39 10° W visible
02 Apr ? 04:51:15 10° NNE 04:55:12 72° ENE 04:55:12 72° ENE visible
03 Apr ? 05:00:07 10° N 05:04:20 85° WNW 05:04:20 85° WNW visible
04 Apr ? 05:09:01 10° N 05:13:12 66° WNW 05:13:26 64° W visible
05 Apr ? 03:44:49 10° ENE 03:45:56 11° E 03:45:56 11° E visible
05 Apr ? 05:17:56 10° N 05:22:02 51° WNW 05:22:32 48° W visible
06 Apr ? 03:52:45 10° ENE 03:55:00 15° E 03:55:00 15° E visible
06 Apr ? 05:26:54 10° N 05:30:50 40° WNW 05:31:36 36° W visible
07 Apr ? 04:01:03 10° NE 04:04:01 18° E 04:04:04 18° E visible
07 Apr ? 05:35:52 10° N 05:39:37 31° WNW 05:40:40 28° W visible
08 Apr ? 04:09:29 10° NE 04:12:53 23° E 04:13:06 23° E visible
08 Apr ? 05:44:53 10° NNW 05:48:21 25° WNW 05:49:42 21° W visible
09 Apr ? 04:18:00 10° NE 04:21:43 29° E 04:22:08 29° ESE visible
09 Apr ? 05:53:57 10° NNW 05:57:05 20° WNW 05:58:44 16° W visible
